Time,TemperatureF,DewpointF,PressureIn,WindDirection,WindDirectionDegrees,WindSpeedMPH,WindSpeedGustMPH,Humidity,HourlyPrecipIn,Conditions,Clouds,dailyrainin,SoftwareType,DateUTC
2013-11-14 00:13:00,38.0,31.0,29.73,WSW,237,4.0,-999.0,75,-99.99,,,0.00,weatherlink.com 1.10,2013-11-14 06:13:00,
2013-11-14 00:28:00,38.2,31.0,29.72,WSW,242,2.0,-999.0,75,-99.99,,,0.00,weatherlink.com 1.10,2013-11-14 06:28:00,
2013-11-14 00:43:00,38.2,31.0,29.72,WSW,242,5.0,-999.0,76,-99.99,,,0.00,weatherlink.com 1.10,2013-11-14 06:43:00,
2013-11-14 00:58:00,38.3,31.0,29.71,West,259,3.0,-999.0,75,-99.99,,,0.00,weatherlink.com 1.10,2013-11-14 06:58:00,
2013-11-14 01:13:00,38.3,31.0,29.70,West,260,3.0,-999.0,76,-99.99,,,0.00,weatherlink.com 1.10,2013-11-14 07:13:00,
2013-11-14 01:28:00,38.2,31.0,29.70,WSW,258,4.0,-999.0,76,-99.99,,,0.00,weatherlink.com 1.10,2013-11-14 07:28:00,
2013-11-14 01:43:00,37.9,31.0,29.69,West,269,5.0,-999.0,76,-99.99,,,0.00,weatherlink.com 1.10,2013-11-14 07:43:00,
2013-11-14 01:58:00,37.9,31.0,29.69,WSW,248,2.0,-999.0,77,-99.99,,,0.00,weatherlink.com 1.10,2013-11-14 07:58:00,
2013-11-14 02:13:00,38.2,31.0,29.69,WSW,258,3.0,-999.0,76,-99.99,,,0.00,weatherlink.com 1.10,2013-11-14 08:13:00,
2013-11-14 02:28:00,37.9,31.0,29.68,WSW,250,5.0,-999.0,77,-99.99,,,0.00,weatherlink.com 1.10,2013-11-14 08:28:00,
2013-11-14 02:43:00,37.8,31.0,29.69,WSW,251,3.0,-999.0,77,-99.99,,,0.00,weatherlink.com 1.10,2013-11-14 08:43:00,
2013-11-14 02:58:00,37.6,31.0,29.68,WSW,256,7.0,-999.0,78,-99.99,,,0.00,weatherlink.com 1.10,2013-11-14 08:58:00,
2013-11-14 03:14:00,37.6,31.0,29.69,WSW,244,4.0,-999.0,78,-99.99,,,0.00,weatherlink.com 1.10,2013-11-14 09:14:00,
2013-11-14 03:29:00,37.6,31.0,29.69,WSW,249,2.0,-999.0,78,-99.99,,,0.00,weatherlink.com 1.10,2013-11-14 09:29:00,
2013-11-14 03:44:00,37.5,31.0,29.68,WSW,249,5.0,-999.0,78,-99.99,,,0.00,weatherlink.com 1.10,2013-11-14 09:44:00,
2013-11-14 03:59:00,37.5,31.0,29.69,WSW,253,3.0,-999.0,78,-99.99,,,0.00,weatherlink.com 1.10,2013-11-14 09:59:00,
2013-11-14 04:14:00,37.5,31.0,29.70,WSW,246,4.0,-999.0,78,-99.99,,,0.00,weatherlink.com 1.10,2013-11-14 10:14:00,
2013-11-14 04:29:00,37.3,31.0,29.70,WSW,240,0.0,-999.0,78,-99.99,,,0.00,weatherlink.com 1.10,2013-11-14 10:29:00,
2013-11-14 04:44:00,37.0,31.0,29.70,WSW,252,4.0,-999.0,79,-99.99,,,0.00,weatherlink.com 1.10,2013-11-14 10:44:00,
2013-11-14 04:59:00,36.9,31.0,29.70,WSW,257,4.0,-999.0,79,-99.99,,,0.00,weatherlink.com 1.10,2013-11-14 10:59:00,
2013-11-14 05:14:00,36.8,31.0,29.70,WSW,255,3.0,-999.0,79,-99.99,,,0.00,weatherlink.com 1.10,2013-11-14 11:14:00,
2013-11-14 05:29:00,36.2,31.0,29.69,WSW,254,3.0,-999.0,81,-99.99,,,0.00,weatherlink.com 1.10,2013-11-14 11:29:00,
2013-11-14 05:44:00,35.9,31.0,29.70,West,262,3.0,-999.0,81,-99.99,,,0.00,weatherlink.com 1.10,2013-11-14 11:44:00,
2013-11-14 05:59:00,35.6,31.0,29.70,West,262,4.0,-999.0,82,-99.99,,,0.00,weatherlink.com 1.10,2013-11-14 11:59:00,
2013-11-14 06:14:00,35.3,30.0,29.70,West,261,3.0,-999.0,82,-99.99,,,0.00,weatherlink.com 1.10,2013-11-14 12:14:00,
2013-11-14 06:29:00,35.0,30.0,29.70,West,269,5.0,-999.0,83,-99.99,,,0.00,weatherlink.com 1.10,2013-11-14 12:29:00,
2013-11-14 06:44:00,35.0,30.0,29.69,WSW,253,4.0,-999.0,83,-99.99,,,0.00,weatherlink.com 1.10,2013-11-14 12:44:00,
2013-11-14 06:59:00,35.2,31.0,29.70,WSW,253,5.0,-999.0,83,-99.99,,,0.00,weatherlink.com 1.10,2013-11-14 12:59:00,
2013-11-14 07:14:00,35.0,30.0,29.70,WSW,253,2.0,-999.0,83,-99.99,,,0.00,weatherlink.com 1.10,2013-11-14 13:14:00,
2013-11-14 07:29:00,34.6,31.0,29.70,WSW,253,2.0,-999.0,85,-99.99,,,0.00,weatherlink.com 1.10,2013-11-14 13:29:00,
2013-11-14 07:44:00,34.9,31.0,29.70,WSW,253,1.0,-999.0,84,-99.99,,,0.00,weatherlink.com 1.10,2013-11-14 13:44:00,
2013-11-14 07:59:00,34.7,30.0,29.71,WSW,253,0.0,-999.0,83,-99.99,,,0.00,weatherlink.com 1.10,2013-11-14 13:59:00,
2013-11-14 08:14:00,34.6,30.0,29.70,WSW,253,0.0,-999.0,84,-99.99,,,0.00,weatherlink.com 1.10,2013-11-14 14:14:00,
2013-11-14 08:29:00,34.6,30.0,29.70,WSW,253,0.0,-999.0,84,-99.99,,,0.00,weatherlink.com 1.10,2013-11-14 14:29:00,
2013-11-14 08:44:00,35.0,31.0,29.70,WSW,253,2.0,-999.0,85,-99.99,,,0.00,weatherlink.com 1.10,2013-11-14 14:44:00,
2013-11-14 08:59:00,35.9,31.0,29.70,WSW,253,1.0,-999.0,83,-99.99,,,0.00,weatherlink.com 1.10,2013-11-14 14:59:00,
2013-11-14 09:14:00,36.6,31.0,29.70,West,274,5.0,-999.0,81,-99.99,,,0.00,weatherlink.com 1.10,2013-11-14 15:14:00,
2013-11-14 09:29:00,36.9,31.0,29.71,West,274,6.0,-999.0,80,-99.99,,,0.00,weatherlink.com 1.10,2013-11-14 15:29:00,
2013-11-14 09:44:00,37.0,31.0,29.72,WNW,295,5.0,-999.0,79,-99.99,,,0.00,weatherlink.com 1.10,2013-11-14 15:44:00,
2013-11-14 09:59:00,37.3,31.0,29.72,WNW,290,2.0,-999.0,79,-99.99,,,0.00,weatherlink.com 1.10,2013-11-14 15:59:00,
2013-11-14 10:14:00,37.6,32.0,29.71,WNW,290,2.0,-999.0,79,-99.99,,,0.00,weatherlink.com 1.10,2013-11-14 16:14:00,
2013-11-14 10:29:00,37.8,32.0,29.69,WNW,290,2.0,-999.0,78,-99.99,,,0.00,weatherlink.com 1.10,2013-11-14 16:29:00,
2013-11-14 10:44:00,37.6,31.0,29.70,WNW,290,0.0,-999.0,78,-99.99,,,0.00,weatherlink.com 1.10,2013-11-14 16:44:00,
2013-11-14 10:59:00,38.2,31.0,29.70,WNW,290,2.0,-999.0,76,-99.99,,,0.00,weatherlink.com 1.10,2013-11-14 16:59:00,
2013-11-14 11:14:00,39.1,32.0,29.69,WNW,290,4.0,-999.0,75,-99.99,,,0.00,weatherlink.com 1.10,2013-11-14 17:14:00,
2013-11-14 11:29:00,40.1,32.0,29.69,WNW,290,3.0,-999.0,72,-99.99,,,0.00,weatherlink.com 1.10,2013-11-14 17:29:00,
2013-11-14 11:44:00,41.3,31.0,29.68,WNW,290,3.0,-999.0,68,-99.99,,,0.00,weatherlink.com 1.10,2013-11-14 17:44:00,
2013-11-14 11:59:00,42.8,31.0,29.67,WNW,290,3.0,-999.0,64,-99.99,,,0.00,weatherlink.com 1.10,2013-11-14 17:59:00,
2013-11-14 12:14:00,43.5,32.0,29.67,WNW,290,0.0,-999.0,64,-99.99,,,0.00,weatherlink.com 1.10,2013-11-14 18:14:00,
2013-11-14 12:29:00,44.1,31.0,29.66,WNW,285,4.0,-999.0,61,-99.99,,,0.00,weatherlink.com 1.10,2013-11-14 18:29:00,
2013-11-14 12:44:00,43.8,32.0,29.66,West,281,2.0,-999.0,63,-99.99,,,0.00,weatherlink.com 1.10,2013-11-14 18:44:00,
2013-11-14 12:59:00,43.9,32.0,29.66,West,281,3.0,-999.0,63,-99.99,,,0.00,weatherlink.com 1.10,2013-11-14 18:59:00,
2013-11-14 13:14:00,44.5,32.0,29.66,West,281,5.0,-999.0,62,-99.99,,,0.00,weatherlink.com 1.10,2013-11-14 19:14:00,
2013-11-14 13:29:00,44.9,32.0,29.66,WSW,241,6.0,-999.0,62,-99.99,,,0.00,weatherlink.com 1.10,2013-11-14 19:29:00,
2013-11-14 13:45:00,44.3,32.0,29.66,WSW,248,1.0,-999.0,62,-99.99,,,0.00,weatherlink.com 1.10,2013-11-14 19:45:00,
2013-11-14 14:00:00,44.6,33.0,29.65,WSW,248,2.0,-999.0,63,-99.99,,,0.00,weatherlink.com 1.10,2013-11-14 20:00:00,
2013-11-14 14:15:00,44.6,33.0,29.65,WSW,248,2.0,-999.0,63,-99.99,,,0.00,weatherlink.com 1.10,2013-11-14 20:15:00,
2013-11-14 14:30:00,44.8,33.0,29.63,WSW,248,1.0,-999.0,63,-99.99,,,0.00,weatherlink.com 1.10,2013-11-14 20:30:00,
2013-11-14 14:45:00,44.6,33.0,29.62,WSW,248,2.0,-999.0,63,-99.99,,,0.00,weatherlink.com 1.10,2013-11-14 20:45:00,
2013-11-14 15:00:00,45.1,33.0,29.63,WSW,248,5.0,-999.0,62,-99.99,,,0.00,weatherlink.com 1.10,2013-11-14 21:00:00,
2013-11-14 15:15:00,45.2,33.0,29.63,WSW,248,2.0,-999.0,62,-99.99,,,0.00,weatherlink.com 1.10,2013-11-14 21:15:00,
2013-11-14 15:30:00,44.2,33.0,29.63,WSW,245,0.0,-999.0,64,-99.99,,,0.00,weatherlink.com 1.10,2013-11-14 21:30:00,
2013-11-14 15:45:00,43.8,33.0,29.64,WSW,245,2.0,-999.0,65,-99.99,,,0.00,weatherlink.com 1.10,2013-11-14 21:45:00,
2013-11-14 16:00:00,43.1,32.0,29.64,WSW,245,1.0,-999.0,66,-99.99,,,0.00,weatherlink.com 1.10,2013-11-14 22:00:00,
2013-11-14 16:15:00,41.5,32.0,29.64,WSW,245,0.0,-999.0,68,-99.99,,,0.00,weatherlink.com 1.10,2013-11-14 22:15:00,
2013-11-14 16:30:00,39.9,31.0,29.64,WSW,245,0.0,-999.0,71,-99.99,,,0.00,weatherlink.com 1.10,2013-11-14 22:30:00,
2013-11-14 16:45:00,38.9,31.0,29.65,WSW,245,2.0,-999.0,74,-99.99,,,0.00,weatherlink.com 1.10,2013-11-14 22:45:00,
2013-11-14 17:00:00,38.6,31.0,29.66,WSW,245,1.0,-999.0,74,-99.99,,,0.00,weatherlink.com 1.10,2013-11-14 23:00:00,
2013-11-14 17:15:00,38.3,31.0,29.66,WSW,245,4.0,-999.0,75,-99.99,,,0.00,weatherlink.com 1.10,2013-11-14 23:15:00,
2013-11-14 17:30:00,38.5,32.0,29.66,WSW,245,0.0,-999.0,76,-99.99,,,0.00,weatherlink.com 1.10,2013-11-14 23:30:00,
2013-11-14 17:45:00,38.3,31.0,29.66,WSW,245,1.0,-999.0,75,-99.99,,,0.00,weatherlink.com 1.10,2013-11-14 23:45:00,
2013-11-14 18:00:00,38.0,31.0,29.68,WSW,245,0.0,-999.0,76,-99.99,,,0.00,weatherlink.com 1.10,2013-11-15 00:00:00,
2013-11-14 18:15:00,37.3,31.0,29.66,WSW,245,2.0,-999.0,78,-99.99,,,0.00,weatherlink.com 1.10,2013-11-15 00:15:00,
2013-11-14 18:30:00,36.6,31.0,29.68,WSW,245,2.0,-999.0,79,-99.99,,,0.00,weatherlink.com 1.10,2013-11-15 00:30:00,
2013-11-14 18:45:00,35.9,30.0,29.68,WSW,245,0.0,-999.0,80,-99.99,,,0.00,weatherlink.com 1.10,2013-11-15 00:45:00,
2013-11-14 19:00:00,34.6,30.0,29.68,WSW,245,2.0,-999.0,82,-99.99,,,0.00,weatherlink.com 1.10,2013-11-15 01:00:00,
2013-11-14 19:15:00,33.5,29.0,29.69,WSW,245,0.0,-999.0,83,-99.99,,,0.00,weatherlink.com 1.10,2013-11-15 01:15:00,
2013-11-14 19:30:00,32.7,28.0,29.69,WSW,245,1.0,-999.0,84,-99.99,,,0.00,weatherlink.com 1.10,2013-11-15 01:30:00,
2013-11-14 19:45:00,32.1,28.0,29.69,WSW,245,0.0,-999.0,86,-99.99,,,0.00,weatherlink.com 1.10,2013-11-15 01:45:00,
2013-11-14 20:00:00,31.6,28.0,29.69,WSW,245,0.0,-999.0,87,-99.99,,,0.00,weatherlink.com 1.10,2013-11-15 02:00:00,
2013-11-14 20:15:00,31.0,28.0,29.69,WSW,245,0.0,-999.0,87,-99.99,,,0.00,weatherlink.com 1.10,2013-11-15 02:15:00,
2013-11-14 20:30:00,30.6,28.0,29.69,WSW,245,0.0,-999.0,88,-99.99,,,0.00,weatherlink.com 1.10,2013-11-15 02:30:00,
2013-11-14 20:45:00,30.3,28.0,29.69,WSW,245,0.0,-999.0,89,-99.99,,,0.00,weatherlink.com 1.10,2013-11-15 02:45:00,
2013-11-14 21:00:00,29.8,27.0,29.69,WSW,245,0.0,-999.0,89,-99.99,,,0.00,weatherlink.com 1.10,2013-11-15 03:00:00,
2013-11-14 21:15:00,29.5,27.0,29.69,WSW,245,0.0,-999.0,90,-99.99,,,0.00,weatherlink.com 1.10,2013-11-15 03:15:00,
2013-11-14 21:30:00,29.3,27.0,29.69,WSW,245,0.0,-999.0,90,-99.99,,,0.00,weatherlink.com 1.10,2013-11-15 03:30:00,
2013-11-14 21:45:00,29.5,28.0,29.70,WSW,245,0.0,-999.0,92,-99.99,,,0.00,weatherlink.com 1.10,2013-11-15 03:45:00,
2013-11-14 22:00:00,29.8,28.0,29.70,WSW,245,0.0,-999.0,91,-99.99,,,0.00,weatherlink.com 1.10,2013-11-15 04:00:00,
2013-11-14 22:15:00,30.3,28.0,29.70,WSW,245,0.0,-999.0,90,-99.99,,,0.00,weatherlink.com 1.10,2013-11-15 04:15:00,
2013-11-14 22:30:00,30.6,28.0,29.70,WSW,245,2.0,-999.0,90,-99.99,,,0.00,weatherlink.com 1.10,2013-11-15 04:30:00,
2013-11-14 22:45:00,30.9,28.0,29.70,WSW,245,0.0,-999.0,90,-99.99,,,0.00,weatherlink.com 1.10,2013-11-15 04:45:00,
2013-11-14 23:00:00,31.0,29.0,29.70,WSW,245,0.0,-999.0,90,-99.99,,,0.00,weatherlink.com 1.10,2013-11-15 05:00:00,
2013-11-14 23:15:00,31.3,29.0,29.69,WSW,245,2.0,-999.0,89,-99.99,,,0.00,weatherlink.com 1.10,2013-11-15 05:15:00,
2013-11-14 23:30:00,31.9,29.0,29.69,WSW,245,0.0,-999.0,89,-99.99,,,0.00,weatherlink.com 1.10,2013-11-15 05:30:00,
2013-11-14 23:45:00,31.9,29.0,29.68,WSW,245,0.0,-999.0,88,-99.99,,,0.00,weatherlink.com 1.10,2013-11-15 05:45:00,